Hourly Weather Rudo

Today, 15 April, Thursday

Time Temperature Precipitation Wind Pressure Humidity
00:00 +3°C° 0 mm 4 mps 750 mmHg 88%
01:00 +3°C° 0 mm 4 mps 750 mmHg 87%
02:00 +3°C° 0 mm 4 mps 750 mmHg 87%
03:00 +3°C° 0 mm 4 mps 749 mmHg 84%
04:00 +1°C° 0 mm 4 mps 749 mmHg 81%
05:00 +1°C° 0 mm 4 mps 749 mmHg 79%
06:00 +1°C° 0 mm 4 mps 749 mmHg 79%
07:00 +2°C° 0 mm 5 mps 749 mmHg 79%
08:00 +2°C° 0 mm 5 mps 749 mmHg 79%
09:00 +2°C° 0 mm 5 mps 749 mmHg 81%
10:00 +2°C° 0 mm 5 mps 749 mmHg 84%
11:00 +2°C° 0 mm 5 mps 749 mmHg 86%
12:00 +2°C° 0.3 mm 5 mps 749 mmHg 88%
13:00 +2°C° 0.3 mm 5 mps 749 mmHg 89%
14:00 +2°C° 0.3 mm 5 mps 749 mmHg 90%
15:00 +2°C° 0.4 mm 5 mps 749 mmHg 91%
16:00 +2°C° 0.4 mm 5 mps 749 mmHg 91%
17:00 +2°C° 0.4 mm 5 mps 749 mmHg 91%
18:00 +2°C° 0.2 mm 5 mps 749 mmHg 92%
19:00 +3°C° 0.2 mm 5 mps 749 mmHg 92%
20:00 +3°C° 0.2 mm 5 mps 749 mmHg 93%
21:00 +3°C° 0.3 mm 5 mps 749 mmHg 93%
22:00 +3°C° 0.3 mm 5 mps 748 mmHg 93%
23:00 +3°C° 0.3 mm 5 mps 748 mmHg 93%

Tomorrow, 16 April, Friday

Time Temperature Precipitation Wind Pressure Humidity
00:00 +3°C° 0.1 mm 5 mps 748 mmHg 93%
01:00 +3°C° 0.1 mm 5 mps 748 mmHg 92%
02:00 +3°C° 0.1 mm 5 mps 748 mmHg 92%
03:00 +3°C° 0.1 mm 5 mps 748 mmHg 92%
04:00 +3°C° 0.1 mm 5 mps 748 mmHg 93%
05:00 +3°C° 0.1 mm 5 mps 748 mmHg 93%
06:00 +3°C° 0.3 mm 5 mps 748 mmHg 93%
07:00 +3°C° 0.3 mm 5 mps 748 mmHg 93%
08:00 +4°C° 0.3 mm 4 mps 749 mmHg 92%
09:00 +5°C° 0.1 mm 5 mps 749 mmHg 90%
10:00 +6°C° 0.1 mm 5 mps 749 mmHg 88%
11:00 +7°C° 0.1 mm 5 mps 749 mmHg 86%
12:00 +7°C° 0.3 mm 4 mps 749 mmHg 86%
13:00 +7°C° 0.3 mm 4 mps 750 mmHg 86%
14:00 +7°C° 0.3 mm 4 mps 750 mmHg 87%
15:00 +8°C° 0 mm 4 mps 750 mmHg 84%
16:00 +10°C° 0 mm 4 mps 750 mmHg 81%
17:00 +11°C° 0 mm 4 mps 749 mmHg 78%
18:00 +11°C° 0 mm 4 mps 750 mmHg 80%
19:00 +10°C° 0 mm 4 mps 750 mmHg 82%
20:00 +10°C° 0 mm 4 mps 750 mmHg 84%
21:00 +8°C° 0 mm 4 mps 751 mmHg 85%
22:00 +8°C° 0 mm 4 mps 751 mmHg 85%
23:00 +8°C° 0 mm 4 mps 751 mmHg 86%

Day after tomorrow, 17 April, Saturday

Time Temperature Precipitation Wind Pressure Humidity
00:00 +7°C° 0 mm 4 mps 751 mmHg 86%
01:00 +7°C° 0 mm 4 mps 751 mmHg 87%
02:00 +6°C° 0 mm 4 mps 751 mmHg 87%
03:00 +6°C° 0 mm 4 mps 751 mmHg 87%
04:00 +6°C° 0 mm 4 mps 751 mmHg 86%
05:00 +5°C° 0 mm 4 mps 752 mmHg 86%
06:00 +6°C° 0 mm 4 mps 752 mmHg 84%
07:00 +6°C° 0 mm 4 mps 752 mmHg 82%
08:00 +6°C° 0 mm 4 mps 752 mmHg 80%
09:00 +8°C° 0 mm 4 mps 752 mmHg 75%
10:00 +10°C° 0 mm 4 mps 753 mmHg 71%
11:00 +12°C° 0 mm 4 mps 753 mmHg 66%
12:00 +12°C° 0 mm 4 mps 753 mmHg 67%
13:00 +12°C° 0 mm 4 mps 753 mmHg 68%
14:00 +12°C° 0 mm 3 mps 753 mmHg 68%
15:00 +12°C° 0 mm 3 mps 753 mmHg 69%
16:00 +12°C° 0 mm 3 mps 753 mmHg 70%
17:00 +12°C° 0 mm 3 mps 753 mmHg 71%
18:00 +12°C° 0 mm 3 mps 753 mmHg 72%
19:00 +11°C° 0 mm 3 mps 753 mmHg 72%
20:00 +12°C° 0 mm 2 mps 753 mmHg 73%
21:00 +10°C° 0 mm 3 mps 754 mmHg 75%
22:00 +9°C° 0 mm 3 mps 754 mmHg 76%
23:00 +8°C° 0 mm 3 mps 754 mmHg 77%

18 April, Sunday

Time Temperature Precipitation Wind Pressure Humidity
00:00 +7°C° 0 mm 3 mps 754 mmHg 77%
01:00 +7°C° 0 mm 3 mps 754 mmHg 76%
02:00 +5°C° 0 mm 3 mps 754 mmHg 75%
03:00 +4°C° 0 mm 3 mps 754 mmHg 76%
04:00 +4°C° 0 mm 3 mps 754 mmHg 76%
05:00 +3°C° 0 mm 3 mps 754 mmHg 77%
06:00 +5°C° 0 mm 3 mps 754 mmHg 72%
07:00 +6°C° 0 mm 4 mps 754 mmHg 67%
08:00 +7°C° 0 mm 4 mps 754 mmHg 62%
09:00 +10°C° 0 mm 4 mps 754 mmHg 57%
10:00 +11°C° 0 mm 4 mps 755 mmHg 53%
11:00 +13°C° 0 mm 4 mps 755 mmHg 48%
12:00 +13°C° 0 mm 4 mps 755 mmHg 46%
13:00 +14°C° 0 mm 4 mps 754 mmHg 45%
14:00 +15°C° 0 mm 4 mps 754 mmHg 43%
15:00 +15°C° 0 mm 4 mps 754 mmHg 44%
16:00 +14°C° 0 mm 3 mps 754 mmHg 46%
17:00 +14°C° 0 mm 3 mps 754 mmHg 47%
18:00 +12°C° 0 mm 3 mps 754 mmHg 54%
19:00 +11°C° 0 mm 3 mps 754 mmHg 61%
20:00 +9°C° 0 mm 2 mps 755 mmHg 68%
21:00 +8°C° 0 mm 2 mps 755 mmHg 70%
22:00 +8°C° 0 mm 2 mps 755 mmHg 71%
23:00 +7°C° 0 mm 2 mps 755 mmHg 73%

19 April, Monday

Time Temperature Precipitation Wind Pressure Humidity
00:00 +7°C° 0 mm 2 mps 755 mmHg 75%
01:00 +6°C° 0 mm 2 mps 755 mmHg 77%
02:00 +6°C° 0 mm 2 mps 755 mmHg 79%
03:00 +5°C° 0 mm 2 mps 755 mmHg 80%
04:00 +5°C° 0 mm 2 mps 755 mmHg 81%
05:00 +5°C° 0 mm 2 mps 755 mmHg 82%
06:00 +5°C° 0 mm 3 mps 755 mmHg 75%
07:00 +8°C° 0 mm 3 mps 755 mmHg 67%
08:00 +8°C° 0 mm 4 mps 755 mmHg 60%
09:00 +11°C° 0 mm 4 mps 754 mmHg 55%
10:00 +12°C° 0 mm 4 mps 754 mmHg 49%
11:00 +14°C° 0 mm 4 mps 754 mmHg 43%
12:00 +14°C° 0 mm 4 mps 754 mmHg 42%
13:00 +14°C° 0 mm 4 mps 753 mmHg 41%
14:00 +14°C° 0 mm 4 mps 753 mmHg 40%
15:00 +14°C° 0 mm 4 mps 753 mmHg 42%
16:00 +14°C° 0 mm 4 mps 753 mmHg 45%
17:00 +14°C° 0 mm 4 mps 752 mmHg 47%
18:00 +12°C° 0 mm 3 mps 752 mmHg 52%
19:00 +11°C° 0 mm 3 mps 752 mmHg 57%
20:00 +10°C° 0 mm 3 mps 752 mmHg 62%
21:00 +9°C° 0 mm 3 mps 752 mmHg 66%
22:00 +8°C° 0 mm 4 mps 751 mmHg 69%
23:00 +7°C° 0 mm 4 mps 751 mmHg 73%

20 April, Tuesday

Time Temperature Precipitation Wind Pressure Humidity
00:00 +7°C° 0 mm 4 mps 751 mmHg 74%
01:00 +7°C° 0 mm 4 mps 750 mmHg 76%
02:00 +6°C° 0 mm 4 mps 750 mmHg 78%
03:00 +6°C° 0 mm 4 mps 750 mmHg 77%
04:00 +6°C° 0 mm 4 mps 749 mmHg 76%
05:00 +5°C° 0 mm 5 mps 749 mmHg 76%
06:00 +6°C° 0 mm 5 mps 749 mmHg 72%
07:00 +6°C° 0 mm 5 mps 748 mmHg 68%
08:00 +6°C° 0 mm 5 mps 748 mmHg 63%
09:00 +7°C° 0 mm 5 mps 747 mmHg 60%
10:00 +7°C° 0 mm 6 mps 747 mmHg 57%
11:00 +8°C° 0 mm 6 mps 746 mmHg 54%
12:00 +8°C° 0 mm 6 mps 745 mmHg 56%
13:00 +8°C° 0 mm 6 mps 745 mmHg 58%
14:00 +6°C° 0 mm 7 mps 744 mmHg 60%
15:00 +6°C° 0.3 mm 7 mps 744 mmHg 67%
16:00 +5°C° 0.3 mm 7 mps 743 mmHg 75%
17:00 +4°C° 0.3 mm 7 mps 742 mmHg 82%
18:00 +4°C° 0.1 mm 6 mps 742 mmHg 85%
19:00 +3°C° 0.1 mm 6 mps 742 mmHg 88%
20:00 +3°C° 0.1 mm 6 mps 741 mmHg 92%
21:00 +3°C° 0.1 mm 6 mps 741 mmHg 93%
22:00 +2°C° 0.1 mm 6 mps 740 mmHg 94%
23:00 +2°C° 0.1 mm 6 mps 740 mmHg 95%
Show more